Regional Weather Roundup
Issued by NWS

Home | Current Version | Previous Version | Graphics & Text | Print | Product List | Glossary On
Versions: 1 2 3 4 5 6 7 8 9 10 11 12 13 14 15 16 17 18 19 20 21 22 23 24 25 26 27 28 29 30 31 32 33 34 35 36 37 38 39 40 41 42 43 44 45 46 47 48 49 50
000
ASUS43 KLOT 040510
RWRIL

ILLINOIS REGIONAL WEATHER ROUNDUP
NATIONAL WEATHER SERVICE CHICAGO/ROMEOVILLE IL
1100 PM CST TUE MAR 03 2015

NOTE: "FAIR" INDICATES FEW OR NO CLOUDS BELOW 12,000 FEET WITH NO
SIGNIFICANT WEATHER AND/OR OBSTRUCTIONS TO VISIBILITY.

* THESE STATIONS ARE NOT UNDER NWS QUALITY CONTROL. THEY ALSO MAY NOT
  REPORT WEATHER SUCH AS PRECIPITATION OR FOG.

ILZ001-002-007-009-015-016-024-040600-
NORTHWEST ILLINOIS

CITY           SKY/WX    TMP DP  RH WIND       PRES   REMARKS
MOLINE         MOCLDY    24  15  68 NW23G31   29.95R WCI   9
STERLING*      CLOUDY    28  21  74 W16       29.91R WCI  17
SAVANNA*       MOCLDY    25  18  74 W14G21    29.93R WCI  13
$$

ILZ003-004-008-010-011-017-018-040600-
NORTH CENTRAL ILLINOIS

CITY           SKY/WX    TMP DP  RH WIND       PRES   REMARKS
ROCKFORD       CLOUDY    30  22  72 NW17      29.89R WCI  18
FREEPORT*      CLOUDY    28  22  79 W14       29.90R WCI  16
ROCHELLE*      CLOUDY    30  25  83 W16       29.88S WCI  18
DE KALB*       CLOUDY    29  25  85 W14       29.86F WCI  18
PERU*          CLOUDY    32  27  82 NW17G23   29.90R WCI  21
$$

ILZ005-006-012>014-019>023-040600-
NORTHEAST ILLINOIS

CITY           SKY/WX    TMP DP  RH WIND       PRES   REMARKS
CHICAGO-OHARE  CLOUDY    30  23  75 W8        29.85S WCI  22
CHICAGO-MIDWAY CLOUDY    33  24  69 W9        29.85F WCI  25
AURORA         CLOUDY    31  24  75 W14       29.86F WCI  21
LANSING*       CLOUDY    32  25  73 NW9       29.86F WCI  25
JOLIET*        CLOUDY    31  26  81 W5        29.87F WCI  27
WAUKEGAN       CLOUDY    30  24  78 W6        29.84R WCI  24
DUPAGE AIRPORT CLOUDY    31  23  72 NW12      29.84F WCI  22
KANKAKEE*      CLOUDY    32  28  83 W12       29.87S WCI  23
WHEELING       CLOUDY    31  24  75 W9        29.87R WCI  23
MORRIS*        CLOUDY    31  28  86 NW12      29.87S WCI  22
ROMEOVILLE*    CLOUDY    32  27  82 NW8       29.86F WCI  24
NORTHERLY ISL    N/A     32  23  70 W8          N/A  WCI  25
$$

LMZ740>746-040600-
SOUTHERN LAKE MICHIGAN

STATION/POSITION SKY/WX   TEMP    WIND        PRES    VSBY  WAVE
                          AIR SEA DIR/SP/G                  HT/PER
                          (F)     (DEG/KT/KT) (MB)    (MI)  (FT/S)
WAUKEGAN HARBOR            31                   N/A
HARRISON CRIB              32     290/ 13/ 15   N/A
BURNHAM HARBOR             32     280/  9/ 15   N/A
CALUMET HARBOR             32     280/  7/ 14 1009.8F
MICHIGAN CITY              32     260/ 10/ 12   N/A
$$

ILZ025>027-034>036-040-047-049-050-058-095>099-040600-
WEST-CENTRAL ILLINOIS

CITY           SKY/WX    TMP DP  RH WIND       PRES   REMARKS
QUINCY         CLOUDY    33  27  78 N15       29.96R WCI  23
GALESBURG*     CLOUDY    27  23  85 NW14G23   29.94S WCI  15
MACOMB*        CLOUDY    29  25  84 NW20      29.97R WCI  17
JACKSONVILLE*  CLOUDY    36  29  78 NW8       29.94R WCI  29
PITTSFIELD*    CLOUDY    35  29  78 NW7       29.95R WCI  29
$$

ILZ028>032-037-038-041>044-048-051>054-059>061-040600-
CENTRAL ILLINOIS

CITY           SKY/WX    TMP DP  RH WIND       PRES   REMARKS
PONTIAC        CLOUDY    32  30  90 W7        29.90R WCI  26
BLOOMINGTON    CLOUDY    32  28  85 NW12      29.90S WCI  23
DECATUR        CLOUDY    34  29  82 NW10      29.93R WCI  26
PEORIA         CLOUDY    34  26  72 NW8       29.92R WCI  27
LACON*         CLOUDY    32  26  78 NW9       29.91R WCI  24
LINCOLN*       CLOUDY    34  29  81 NW5       29.92R WCI  30
SPRINGFIELD    CLOUDY    35  28  75 N8        29.93R WCI  29
TAYLORVILLE    CLOUDY    34  30  86 N9        29.93R WCI  26
$$

ILZ033-039-045-046-055>057-062-063-040600-
EAST-CENTRAL ILLINOIS

CITY           SKY/WX    TMP DP  RH WIND       PRES   REMARKS
CHAMPAIGN      CLOUDY    34  31  88 W6        29.90S WCI  29
DANVILLE*      CLOUDY    33  31  90 NW7       29.87F WCI  27
RANTOUL*       CLOUDY    35  31  86 NW10      29.90R WCI  27
MATTOON        CLOUDY    34  31  88 NW5       29.90F WCI  30
PARIS*         CLOUDY    34  33  96 W3        29.92R
$$

ILZ079-100>102-040600-
SOUTHWEST ILLINOIS

CITY           SKY/WX    TMP DP  RH WIND       PRES   REMARKS
ALTON          LGT RAIN  37  35  94 N6        29.96R WCI  32
BELLEVILLE     LGT RAIN  38  38 100 N5        29.92R WCI  34
CAHOKIA*       LGT RAIN  38  36  92 N7        29.94R WCI  33
SPARTA*        DRIZZLE   39  38  97 N3        29.93R
$$

ILZ064>066-069>071-074>076-080>082-084>086-088>090-092>094-040600-
SOUTH-CENTRAL ILLINOIS

CITY           SKY/WX    TMP DP  RH WIND       PRES   REMARKS
CARBONDALE     LGT RAIN  41  40  96 N3        29.91S VSB 1
CAIRO*         RAIN     N/A N/A N/A NW3       29.90S VSB 1/2
EFFINGHAM*     LGT RAIN  36  34  92 N5        29.93F WCI  32
MARION         FOG       43  43 100 N3        29.92S VSB 1
MT. VERNON     CLOUDY    37  36  93 CALM      29.94R
CENTRALIA*     RAIN      38  36  94 NW5       29.94R WCI  34
SALEM*         RAIN      38  37  94 N10       29.95R WCI  31
METROPOLIS*    HVY RAIN  47  47 100 CALM      29.89R
$$

ILZ067-068-072-073-078-083-087-091-040600-
SOUTHEAST ILLINOIS

CITY           SKY/WX    TMP DP  RH WIND       PRES   REMARKS
LAWRENCEVILLE  LGT RAIN  37  36  96 NW7       29.91F WCI  32
FLORA*         RAIN      38  38 100 N6        29.91F WCI  33
FAIRFIELD*     LGT RAIN  39  39  99 CALM      29.89F VSB 1
HARRISBURG*    DRIZZLE   43  43 100 NW5       29.92F
ROBINSON*      RAIN      36  36 100 NW5       29.92F WCI  32
CARMI*         LGT RAIN  41  41 100 CALM      29.91S VSB 1/2
$$

ABBREVIATIONS USED IN REMARKS
   TC - TEMPERATURE IN CELSIUS
  WCI - WIND CHILL INDEX
   HX - HEAT INDEX
  VSB - VISIBILITY
$$




USA.gov is the U.S. government's official web portal to all federal, state and local government web resources and services.